Location: Unspecified
(40.7830°N, 0.0000°E)
Time: 13:33:03
(UTC+00:00)

Cosmos 970 - Visible Passes

Search period start: 04 April 2026 00:00
Search period end: 14 April 2026 00:00
Orbit: 923 x 1149 km, 65.9° (Epoch: 29 March)

Date Brightness Start Highest point End Pass type
(mag) Time Alt. Az. Time Alt. Az. Time Alt. Az.
4 Apr 6.1 19:10:51 10° NNW 19:17:37 47° NE 19:23:23 13° ESE visible
4 Apr 6.8 21:00:20 10° NW 21:06:29 35° WSW 21:09:22 24° SSW visible
5 Apr 5.7 19:55:06 10° NNW 20:02:06 79° WSW 20:07:05 19° SSE visible
5 Apr 8.0 21:47:23 10° WNW 21:49:53 12° W 21:52:22 10° WSW visible
6 Apr 6.0 18:50:25 10° NNW 18:57:15 51° NE 19:03:41 10° SE visible
6 Apr 7.1 20:40:03 10° NW 20:45:58 31° WSW 20:50:52 13° SSW visible
7 Apr 5.9 19:34:42 10° NW 19:41:39 72° WSW 19:48:10 10° SSE visible
7 Apr 8.2 21:28:08 10° W 21:29:20 10° W 21:30:32 10° WSW visible
8 Apr 7.3 20:19:48 10° NW 20:25:28 28° WSW 20:30:53 10° SSW visible
9 Apr 6.1 19:14:19 10° NW 19:21:12 65° WSW 19:27:39 10° SSE visible
10 Apr 7.6 19:59:34 10° NW 20:04:58 25° WSW 20:10:08 10° SSW visible
11 Apr 6.3 18:53:58 10° NW 19:00:45 59° WSW 19:07:07 10° SSE visible
12 Apr 7.9 19:39:22 10° WNW 19:44:26 23° WSW 19:49:19 10° SSW visible
